Flughafen Berlin-Schönefeld, Germany

09:25 AM CEST am 29. März 2017 (GMT +0200)
Schonefeld | | Change Station

Höhe 157 ft 52.38 °N, 13.52 °E | Updated 5 minutes ago

Clear
Heiter
55 °F
gefühlte 55 °F
N
16
Wind Wechselnd Wind aus West-Südwest

Heute
Max. -- | schwach -- °F
--% Regenrisiko
Gestern
Max. -- | schwach -- °F
Precip. -- inch
Druck 30.09 inch
Sichtweite -9999.0 Meilen
Wolken
Taupunkt 43 °F
Feuchtigkeit 63%
Regen 0.00 inch
Schneehöhe Nicht verfügbar..
6:47 AM 7:35 PM
Neumond, 2% visible
METAR EDDB 290720Z 25014KT CAVOK 13/06 Q1019 TEMPO 27015G25KT
Druck 30.09 inch
Sichtweite -9999.0 Meilen
Wolken
Taupunkt 43 °F
Feuchtigkeit 63%
Regen 0.00 inch
Schneehöhe Nicht verfügbar..
6:47 AM 7:35 PM
Neumond, 2% visible
METAR EDDB 290720Z 25014KT CAVOK 13/06 Q1019 TEMPO 27015G25KT

Get Severe Weather Alerts

Thanks for signing up!

Be on the lookout for a verification email in your inbox.

You'll start receiving the daily forecast at 8 AM.

×

10-Day Weather Forecast

×

Almanac

Astronomie

Mar. 29, 2017 Aufgang Untergang
Genaue Zeit
Bürgerliche Dämmerung
Nautische Dämmerung
Astronomische Dämmerung
Mond
Länge des sichtbaren Lichts
Tageslänge
Tomorrow will be .
, % of the Moon is Illuminated

Heutige Rekorde

Country Highs Country Lows

Community

WunderPhotos

Upload Photos

1,962,540 Fotos hochgeladen!

WunderBlog® & News

Nearby

Luftqualität

  Luftqualität LQ Index Schadstoff
Not available.

Schneehöhe

Station Depth Höhe

Erdbebenaktivität

Stadt Distance Mag. Time & Date
Minimum magnitude displayed is 2.5.

Erdbebenaktivität

Stadt Distance Mag. Time & Date
Minimum magnitude displayed is 2.5.

küstennahe Wassertemperaturen

Ort Temperatur

Stations

Wetterstationen in der Umgebung

Stationsstandort Temp. Windchill Taupunkt Feuchtigkeit Wind Precip. Höhe Aktualisiert Art